[[{"header":{"parameterUnit":"m.s-1","parameterCategory":1,"la1":30.2991,"la2":30.254,"lo1":-89.0895,"lo2":-89.0444,"dy":0.0017,"dx":0.0017,"nx":28,"ny":28,"refTime":"2025-08-30T21:00:00:Z","depth":0,"parameterNumber":2,"parameterNumberName":"U-component_of_WINDS"},"data":[0,0,0,0,0,0,0,0,0,0,0,0,0,0,0,0,0,0,0,0,0,0,0,0,0,0,0,0,0,0,0,0,0,0,0,0,0,0,0,0,0,0,0,0,0,0,0,0,0,0,0,0,0,0,0,0,0,0,-3.5926,-3.5926,0,-3.5974,-3.5974,-3.5975,-3.581,-3.5805,-3.58,-3.5795,-3.5848,-3.5854,-3.586,0,0,0,0,0,0,0,0,0,0,0,0,0,-3.5694,-3.5699,-3.5926,-3.5926,-3.5927,-3.5974,-3.5974,-3.5975,-3.581,-3.5804,-3.5798,-3.5793,-3.5846,-3.5853,-3.5861,0,0,0,0,0,0,0,0,0,0,0,0,0,-3.5774,-3.5701,-3.5926,-3.585,-3.5844,-3.5973,-3.5974,-3.5975,-3.5812,-3.5804,-3.5797,-3.579,-3.5844,-3.5853,-3.5862,-3.6067,0,0,-3.5889,-3.5893,0,0,0,0,0,0,0,0,-3.5769,-3.5782,-3.5861,-3.5856,-3.5849,-3.5878,-3.5912,-3.6006,-3.5814,-3.5824,-3.5795,-3.5786,-3.5864,-3.5871,-3.5897,-3.607,-3.6072,-3.589,-3.5896,-3.59,-3.5902,0,0,0,0,0,0,0,-3.5764,-3.5779,-3.5945,-3.5862,-3.5855,-3.5815,-3.5818,-3.5929,-3.5886,-3.5823,-3.5811,-3.5818,-3.586,-3.5889,-3.5897,-3.6073,-3.589,-3.5898,-3.5904,-3.5907,-3.6416,-3.6424,0,0,0,0,0,0,-3.5768,-3.5776,-3.5943,-3.5946,-3.579,-3.5825,-3.5828,-3.5876,-3.5884,-3.5878,-3.5825,-3.5811,-3.5877,-3.5886,-3.5898,-3.6139,-3.59,-3.5908,-3.5913,-3.6408,-3.6418,-3.6427,0,0,0,0,0,0,-3.5764,-3.5784,-3.5941,-3.5858,-3.5875,-3.5837,-3.5892,-3.5881,-3.5909,-3.5886,-3.5877,-3.5862,-3.5871,-3.5885,-3.6026,-3.6139,-3.5912,-3.592,-3.6399,-3.6411,-3.6422,-3.6624,0,0,0,0,0,0,-3.5758,-3.5784,-3.5861,-3.5861,-3.588,-3.6068,-3.5899,-3.5887,-3.5925,-3.5907,-3.5918,-3.5913,-3.5866,-3.6013,-3.6035,-3.6147,-3.5928,-3.6388,-3.6404,-3.6418,-3.6607,-3.6641,-3.6671,0,0,0,0,0,-3.575,-3.5917,-3.5866,-3.5887,-3.5975,-3.6075,-3.6086,-3.6028,-3.5935,-3.6013,-3.5997,-3.5913,-3.6123,-3.6029,-3.6052,-3.6169,-3.6381,-3.64,-3.6417,-3.6593,-3.6635,-3.667,0,0,0,0,0,0,-3.5933,-3.5916,-3.5859,-3.603,-3.6055,-3.6047,-3.6143,-3.6074,-3.6127,-3.6108,-3.6034,-3.6038,-3.6192,-3.6194,-3.609,-3.6368,-3.6236,-3.626,-3.6361,-3.6401,-3.6432,-3.6429,-3.5935,0,0,0,0,0,-3.5993,-3.6075,-3.6055,-3.6209,-3.6224,-3.6182,-3.6223,-3.6176,-3.6199,-3.6209,-3.6204,-3.6231,-3.6302,-3.6351,-3.6416,-3.6606,-3.6606,-3.6697,-3.6729,-3.6755,-3.6777,-3.6877,-3.6918,-3.6486,-3.6486,-3.6486,0,0,-3.6119,-3.612,-3.6176,-3.6246,-3.6259,-3.6346,-3.6192,-3.629,-3.6354,-3.6224,-3.6357,-3.6354,-3.6379,-3.6545,-3.6618,-3.6551,-3.6896,-3.6778,-3.68,-3.6807,-3.69,-3.6941,-3.6978,-3.6499,-3.6496,-3.6494,0,0,-3.6393,-3.6401,-3.6529,-3.6546,-3.6568,-3.6538,-3.657,-3.6571,-3.6564,-3.6695,-3.6599,-3.6675,-3.68,-3.6821,-3.6849,-3.713,-3.7054,-3.7153,-3.732,-3.7419,-3.7453,-3.7482,-3.7583,-3.762,-3.7174,-3.7175,-3.7175,0,-3.6547,-3.6673,-3.6605,-3.6709,-3.6743,-3.6628,-3.6758,-3.6777,-3.682,-3.6847,-3.6771,-3.6925,-3.6934,-3.7103,-3.7171,-3.7197,-3.7231,-3.7152,-3.7453,-3.7482,-3.7509,-3.7604,-3.7642,-3.7187,-3.7185,-3.7184,-3.7183,0,-3.6861,-3.695,-3.7051,-3.7094,-3.7139,-3.7256,-3.7206,-3.726,-3.7209,-3.7188,-3.7323,-3.7329,-3.7392,-3.7429,-3.738,-3.7592,-3.755,-3.7465,-3.7331,-3.7563,-3.7651,-3.7687,-3.7204,-3.7199,-3.7196,-3.7193,0,0,-3.7254,-3.7256,-3.7294,-3.7312,-3.7327,-3.7395,-3.7507,-3.7567,-3.7615,-3.7648,-3.7741,-3.7849,-3.777,-3.7801,-3.7753,-3.784,-3.8062,-3.7744,-3.7743,-3.7804,-3.8296,-3.8361,-3.8404,-3.8012,-3.8018,-3.8023,-3.8294,0,-3.7523,-3.7713,-3.7654,-3.7846,-3.7928,-3.7818,-3.7916,-3.7936,-3.7919,-3.7986,-3.7967,-3.8046,-3.7935,-3.7953,-3.8034,-3.8018,-3.816,-3.7998,-3.8098,-3.8103,-3.8097,-3.845,-3.8519,-3.8774,-3.8328,-3.8334,-3.8338,0,-3.7863,-3.7908,-3.8108,-3.8108,-3.814,-3.8229,-3.8279,-3.8345,-3.8366,-3.8347,-3.8382,-3.8316,-3.8426,-3.8291,-3.8442,-3.8333,-3.837,-3.8369,-3.8377,-3.8385,-3.8236,-3.8469,-3.8854,-3.8893,-3.8392,-3.8388,-3.8384,0,-3.813,-3.824,-3.8374,-3.8392,-3.8396,-3.8461,-3.8466,-3.8479,-3.8519,-3.8564,-3.8589,-3.8647,-3.8679,-3.8725,-3.8677,-3.8583,-3.8836,-3.8697,-3.8825,-3.8827,-3.8885,-3.8882,-3.9283,-3.8907,-3.8907,-3.8906,-3.8905,0,-3.8437,-3.8564,-3.8494,-3.8577,-3.8715,-3.8647,-3.8786,-3.8779,-3.8791,-3.8871,-3.878,-3.8857,-3.8788,-3.8859,-3.8822,-3.8953,-3.8969,-3.8957,-3.8946,-3.8966,-3.8968,-3.8991,-3.8972,-3.8916,-3.8914,-3.8912,-3.891,0,-3.876,-3.8718,-3.8856,-3.8848,-3.8849,-3.8952,-3.8945,-3.9021,-3.8997,-3.9099,-3.9119,-3.9082,-3.916,-3.9116,-3.9198,-3.9172,-3.9343,-3.9307,-3.9336,-3.9327,-3.9458,-3.9447,-3.9888,-3.9943,-3.9532,-3.9536,-3.9539,0,-3.8959,-3.9054,-3.9055,-3.9101,-3.9112,-3.9188,-3.9227,-3.9164,-3.9209,-3.9239,-3.9313,-3.9383,-3.9436,-3.9567,-3.9548,-3.961,-3.9575,-3.9726,-3.9584,-3.9601,-3.9578,-3.9574,-3.9583,-3.9755,-3.976,-3.9763,-3.9767,0,-3.9318,-3.9292,-3.9352,-3.9406,-3.9456,-3.9495,-3.9527,-3.9571,-3.9507,-3.9563,-3.9641,-3.9682,-3.9764,-3.9836,-3.9888,-3.9894,-3.9821,-3.9811,-3.9844,-3.9866,-3.9879,-3.9874,-3.9415,-3.9802,-3.9798,-3.9796,-3.9794,-3.9792,-3.9585,-3.9664,-3.9677,-3.9748,-3.9764,-3.9796,-3.9867,-3.9851,-3.9915,-3.9976,-3.9934,-4.0027,-4.0045,-4.0108,-4.0123,-4.0195,-4.0135,-4.0183,-4.0195,-4.0208,-4.0226,-3.9867,-4.0204,-4.0203,-4.0202,-4.0201,-4.0201,0,-3.994,-3.9942,-4.0008,-4.0054,-4.011,-4.0034,-4.0065,-4.0117,-4.0199,-4.0221,-4.0275,-4.0365,-4.0434,-4.042,-4.0482,-4.0542,-4.0511,-4.0561,-4.0557,-4.0559,-4.0276,-4.0242,-4.0586,-4.0586,-4.0586,-4.0586,-4.0586,-4.0585,-4.0131,-4.026,-4.0236,-4.0373,-4.0375,-4.0464,-4.0488,-4.0517,-4.0534,-4.0639,-4.0695,-4.0684,-4.0692,-4.0754,-4.0813,-4.0807,-4.0835,-4.0898,-4.0881,-4.0617,-4.0579,-4.0543,-4.051,-4.0905,-4.0905,-4.1157,-4.1159,-4.1161]},{"header":{"parameterUnit":"m.s-1","parameterCategory":1,"la1":30.2991,"la2":30.254,"lo1":-89.0895,"lo2":-89.0444,"dy":0.0017,"dx":0.0017,"nx":28,"ny":28,"refTime":"2025-08-30T21:00:00:Z","depth":0,"parameterNumber":3,"parameterNumberName":"V-component_of_WINDS"},"data":[0,0,0,0,0,0,0,0,0,0,0,0,0,0,0,0,0,0,0,0,0,0,0,0,0,0,0,0,0,0,0,0,0,0,0,0,0,0,0,0,0,0,0,0,0,0,0,0,0,0,0,0,0,0,0,0,0,0,-2.3073,-2.3073,0,-2.3094,-2.3094,-2.3094,-2.3089,-2.3088,-2.3088,-2.3088,-2.3108,-2.3109,-2.311,0,0,0,0,0,0,0,0,0,0,0,0,0,-2.3027,-2.3028,-2.3073,-2.3073,-2.3073,-2.3094,-2.3094,-2.3094,-2.3089,-2.3088,-2.3088,-2.3088,-2.3108,-2.3109,-2.311,0,0,0,0,0,0,0,0,0,0,0,0,0,-2.3047,-2.3028,-2.3073,-2.3073,-2.3073,-2.3094,-2.3094,-2.3094,-2.3089,-2.3088,-2.3088,-2.3087,-2.3108,-2.3109,-2.311,-2.3131,0,0,-2.3115,-2.3115,0,0,0,0,0,0,0,0,-2.3046,-2.3049,-2.3073,-2.3073,-2.3074,-2.3088,-2.3085,-2.3107,-2.3089,-2.3083,-2.3088,-2.3087,-2.3102,-2.3104,-2.3109,-2.3132,-2.3133,-2.3115,-2.3116,-2.3116,-2.3117,0,0,0,0,0,0,0,-2.3044,-2.3048,-2.3081,-2.3073,-2.3074,-2.3072,-2.3074,-2.3089,-2.3096,-2.3084,-2.3083,-2.3086,-2.3102,-2.3108,-2.3109,-2.3133,-2.3115,-2.3116,-2.3117,-2.3117,-2.3172,-2.3172,0,0,0,0,0,0,-2.3043,-2.3047,-2.308,-2.3082,-2.3058,-2.3073,-2.3076,-2.3084,-2.3096,-2.3097,-2.3086,-2.3086,-2.3106,-2.3108,-2.311,-2.3134,-2.3116,-2.3117,-2.3118,-2.3171,-2.3172,-2.3173,0,0,0,0,0,0,-2.3042,-2.3046,-2.308,-2.3064,-2.3068,-2.3074,-2.3084,-2.3085,-2.309,-2.3098,-2.3099,-2.3091,-2.3105,-2.3108,-2.3125,-2.3134,-2.3118,-2.3119,-2.317,-2.3171,-2.3172,-2.3182,0,0,0,0,0,0,-2.3041,-2.3046,-2.3054,-2.3064,-2.3069,-2.3095,-2.3085,-2.3086,-2.3093,-2.3092,-2.3102,-2.3103,-2.3105,-2.3123,-2.3127,-2.3136,-2.312,-2.317,-2.3171,-2.3172,-2.3181,-2.3183,-2.3185,0,0,0,0,0,-2.3039,-2.3057,-2.3055,-2.3059,-2.308,-2.3096,-2.3098,-2.31,-2.3094,-2.3102,-2.3106,-2.3103,-2.3133,-2.3125,-2.3129,-2.3139,-2.3169,-2.3171,-2.3172,-2.318,-2.3182,-2.3185,0,0,0,0,0,0,-2.3048,-2.3058,-2.3056,-2.3077,-2.3086,-2.3095,-2.3105,-2.3103,-2.3113,-2.3112,-2.3114,-2.3116,-2.3133,-2.3138,-2.3129,-2.3158,-2.315,-2.3152,-2.3154,-2.3157,-2.3159,-2.3157,-2.3122,0,0,0,0,0,-2.3052,-2.3065,-2.3073,-2.3091,-2.3095,-2.3099,-2.3106,-2.3107,-2.3115,-2.3119,-2.3124,-2.3132,-2.3143,-2.3151,-2.3161,-2.3181,-2.3182,-2.319,-2.3192,-2.3193,-2.3195,-2.3204,-2.3207,-2.3177,-2.3177,-2.3177,0,0,-2.3061,-2.3068,-2.3076,-2.3092,-2.3099,-2.3111,-2.3102,-2.3116,-2.3124,-2.3121,-2.3137,-2.3141,-2.315,-2.3168,-2.3176,-2.3173,-2.3203,-2.3195,-2.3196,-2.3197,-2.3206,-2.3208,-2.3211,-2.3178,-2.3178,-2.3178,0,0,-2.3084,-2.3091,-2.3106,-2.3112,-2.3122,-2.3124,-2.3128,-2.3137,-2.3139,-2.3156,-2.3153,-2.3162,-2.3182,-2.3188,-2.3193,-2.3216,-2.3213,-2.3219,-2.323,-2.3239,-2.3241,-2.3243,-2.325,-2.3252,-2.3221,-2.3221,-2.3221,0,-2.3094,-2.3113,-2.3114,-2.3127,-2.3133,-2.313,-2.3144,-2.315,-2.3163,-2.3167,-2.3162,-2.3185,-2.3191,-2.321,-2.3215,-2.322,-2.3223,-2.3218,-2.3241,-2.3243,-2.3245,-2.3251,-2.3254,-2.3222,-2.3222,-2.3222,-2.3222,0,-2.3124,-2.3136,-2.3147,-2.3158,-2.3166,-2.318,-2.3182,-2.3189,-2.3189,-2.3191,-2.3207,-2.3214,-2.3225,-2.3229,-2.3229,-2.3247,-2.3244,-2.324,-2.3232,-2.3248,-2.3254,-2.3256,-2.3223,-2.3223,-2.3222,-2.3222,0,0,-2.3153,-2.3164,-2.3168,-2.3172,-2.3181,-2.3191,-2.3203,-2.3214,-2.322,-2.3228,-2.3238,-2.3253,-2.3249,-2.3255,-2.3256,-2.3263,-2.3279,-2.3258,-2.3258,-2.3261,-2.3297,-2.33,-2.3302,-2.3277,-2.3277,-2.3278,-2.3296,0,-2.3176,-2.3198,-2.3199,-2.3219,-2.3229,-2.3226,-2.3236,-2.3243,-2.3245,-2.3254,-2.3257,-2.3267,-2.3261,-2.3265,-2.3272,-2.3275,-2.3286,-2.3274,-2.3285,-2.3285,-2.3282,-2.3306,-2.3309,-2.3326,-2.3298,-2.3299,-2.3299,0,-2.3205,-2.3213,-2.3234,-2.324,-2.3245,-2.3255,-2.3263,-2.3272,-2.3278,-2.328,-2.3286,-2.3284,-2.3296,-2.3287,-2.3303,-2.3295,-2.3299,-2.3301,-2.3302,-2.3302,-2.3293,-2.3306,-2.3331,-2.3333,-2.3303,-2.3303,-2.3302,0,-2.3223,-2.3239,-2.3253,-2.3257,-2.3265,-2.3272,-2.3275,-2.3281,-2.3287,-2.3294,-2.3298,-2.3307,-2.3311,-2.3318,-2.3318,-2.3312,-2.3333,-2.3325,-2.3334,-2.3333,-2.3338,-2.3337,-2.3363,-2.3342,-2.3342,-2.3342,-2.3342,0,-2.3247,-2.326,-2.3261,-2.327,-2.3283,-2.3283,-2.3296,-2.3299,-2.3304,-2.3313,-2.331,-2.3318,-2.3319,-2.3327,-2.3327,-2.3339,-2.3341,-2.3342,-2.3342,-2.3342,-2.3341,-2.3344,-2.3343,-2.3343,-2.3343,-2.3343,-2.3342,0,-2.3269,-2.3271,-2.3285,-2.3291,-2.3292,-2.3302,-2.3306,-2.3314,-2.3316,-2.3326,-2.3329,-2.3331,-2.334,-2.3342,-2.3352,-2.3353,-2.3366,-2.3365,-2.3364,-2.3363,-2.3371,-2.337,-2.3399,-2.3402,-2.338,-2.338,-2.3381,0,-2.3284,-2.3293,-2.3299,-2.3305,-2.3308,-2.3317,-2.3322,-2.3322,-2.3328,-2.3335,-2.3341,-2.335,-2.3357,-2.3371,-2.3374,-2.3381,-2.338,-2.3389,-2.3381,-2.338,-2.3379,-2.3378,-2.3378,-2.3391,-2.3391,-2.3391,-2.3392,0,-2.331,-2.331,-2.3318,-2.3325,-2.3331,-2.3337,-2.3343,-2.3347,-2.3348,-2.3354,-2.3363,-2.3368,-2.3378,-2.3386,-2.3394,-2.3397,-2.3394,-2.3394,-2.3396,-2.3396,-2.3394,-2.3394,-2.3367,-2.3393,-2.3393,-2.3393,-2.3393,-2.3393,-2.3328,-2.3335,-2.334,-2.3348,-2.3352,-2.3357,-2.3364,-2.3366,-2.3373,-2.3381,-2.3381,-2.339,-2.3395,-2.3404,-2.3408,-2.3414,-2.3411,-2.3415,-2.3415,-2.3416,-2.3416,-2.3394,-2.3416,-2.3416,-2.3416,-2.3416,-2.3416,0,-2.3353,-2.3355,-2.3363,-2.337,-2.3376,-2.3373,-2.3378,-2.3383,-2.3391,-2.3396,-2.3402,-2.3412,-2.3419,-2.3422,-2.3429,-2.3433,-2.3432,-2.3435,-2.3434,-2.3435,-2.3419,-2.3416,-2.3436,-2.3436,-2.3436,-2.3436,-2.3436,-2.3436,-2.3366,-2.3378,-2.3378,-2.3391,-2.3393,-2.3402,-2.3405,-2.3409,-2.3413,-2.3423,-2.3429,-2.343,-2.3434,-2.3441,-2.3447,-2.3447,-2.345,-2.3453,-2.3453,-2.3438,-2.3436,-2.3434,-2.3431,-2.3454,-2.3454,-2.3468,-2.3468,-2.3468]}]]